Time,TemperatureF,DewpointF,PressureIn,WindDirection,WindDirectionDegrees,WindSpeedMPH,WindSpeedGustMPH,Humidity,HourlyPrecipIn,Conditions,Clouds,dailyrainin,SolarRadiationWatts/m^2,SoftwareType,DateUTC
2013-12-23 00:04:00,38.7,35.4,29.23,East,90,0.0,0.0,88,0.00,,,0.00,375.0,meteobridge,2013-12-23 05:04:00,
2013-12-23 00:09:00,38.7,35.4,29.23,East,90,0.0,0.0,88,0.00,,,0.00,375.0,meteobridge,2013-12-23 05:09:00,
2013-12-23 00:14:00,38.7,35.4,29.24,East,90,0.0,0.0,88,0.00,,,0.00,375.0,meteobridge,2013-12-23 05:14:00,
2013-12-23 00:19:00,38.7,35.4,29.23,East,90,0.0,0.0,88,0.00,,,0.00,375.0,meteobridge,2013-12-23 05:19:00,
2013-12-23 00:24:00,38.7,35.4,29.22,East,90,0.0,0.0,88,0.00,,,0.00,375.0,meteobridge,2013-12-23 05:24:00,
2013-12-23 00:29:00,38.7,35.4,29.22,East,90,0.0,0.0,88,0.00,,,0.00,375.0,meteobridge,2013-12-23 05:29:00,
2013-12-23 00:35:00,38.7,35.4,29.22,East,90,0.0,0.0,88,0.00,,,0.00,448.0,meteobridge,2013-12-23 05:35:00,
2013-12-23 00:40:00,38.7,35.4,29.22,East,90,0.0,0.0,88,0.00,,,0.00,448.0,meteobridge,2013-12-23 05:40:00,
2013-12-23 00:45:00,38.7,35.4,29.22,East,90,0.0,0.0,88,0.00,,,0.00,448.0,meteobridge,2013-12-23 05:45:00,
2013-12-23 00:50:00,38.5,35.2,29.23,East,90,0.0,0.0,88,0.00,,,0.00,448.0,meteobridge,2013-12-23 05:50:00,
2013-12-23 00:55:00,38.5,34.9,29.23,East,90,0.0,0.0,87,0.00,,,0.00,448.0,meteobridge,2013-12-23 05:55:00,
2013-12-23 01:00:00,38.5,34.9,29.23,East,90,0.0,0.0,87,0.00,,,0.00,448.0,meteobridge,2013-12-23 06:00:00,
2013-12-23 01:06:00,38.5,34.9,29.23,East,90,0.0,0.0,87,0.00,,,0.00,595.0,meteobridge,2013-12-23 06:06:00,
2013-12-23 01:11:00,38.5,34.9,29.23,East,90,0.0,0.0,87,0.00,,,0.00,595.0,meteobridge,2013-12-23 06:11:00,
2013-12-23 01:16:00,38.5,34.9,29.23,East,90,0.0,0.0,87,0.00,,,0.00,595.0,meteobridge,2013-12-23 06:16:00,
2013-12-23 01:21:00,38.5,34.9,29.24,East,90,0.0,0.0,87,0.00,,,0.00,595.0,meteobridge,2013-12-23 06:21:00,
2013-12-23 01:26:00,38.5,34.9,29.24,East,90,0.0,0.0,87,0.00,,,0.00,595.0,meteobridge,2013-12-23 06:26:00,
2013-12-23 01:31:00,38.5,34.9,29.24,East,90,0.0,0.0,87,0.00,,,0.00,595.0,meteobridge,2013-12-23 06:31:00,
2013-12-23 01:37:00,38.5,34.9,29.24,East,90,0.0,0.0,87,0.00,,,0.00,705.0,meteobridge,2013-12-23 06:37:00,
2013-12-23 01:42:00,38.5,34.9,29.23,East,90,0.0,0.0,87,0.00,,,0.00,705.0,meteobridge,2013-12-23 06:42:00,
2013-12-23 01:47:00,38.5,34.9,29.24,East,90,0.0,0.0,87,0.00,,,0.00,705.0,meteobridge,2013-12-23 06:47:00,
2013-12-23 01:52:00,38.5,34.9,29.24,East,90,0.0,0.0,87,0.00,,,0.00,705.0,meteobridge,2013-12-23 06:52:00,
2013-12-23 01:57:00,38.5,34.9,29.24,East,90,0.0,0.0,87,0.00,,,0.00,705.0,meteobridge,2013-12-23 06:57:00,
2013-12-23 02:02:00,38.3,34.7,29.23,East,90,0.0,0.0,87,0.00,,,0.00,778.0,meteobridge,2013-12-23 07:02:00,
2013-12-23 02:08:00,38.3,34.7,29.23,East,90,0.0,0.0,87,0.00,,,0.00,778.0,meteobridge,2013-12-23 07:08:00,
2013-12-23 02:13:00,38.3,34.7,29.24,East,90,0.0,0.0,87,0.00,,,0.00,778.0,meteobridge,2013-12-23 07:13:00,
2013-12-23 02:18:00,38.3,34.7,29.24,East,90,0.0,0.0,87,0.00,,,0.00,778.0,meteobridge,2013-12-23 07:18:00,
2013-12-23 02:23:00,38.3,34.7,29.25,East,90,0.0,0.0,87,0.00,,,0.00,778.0,meteobridge,2013-12-23 07:23:00,
2013-12-23 02:28:00,38.3,34.7,29.25,East,90,0.0,0.0,87,0.00,,,0.00,778.0,meteobridge,2013-12-23 07:28:00,
2013-12-23 02:33:00,38.3,34.7,29.25,East,90,0.0,0.0,87,0.00,,,0.00,778.0,meteobridge,2013-12-23 07:33:00,
2013-12-23 02:39:00,38.3,34.7,29.25,East,90,0.0,0.0,87,0.00,,,0.00,778.0,meteobridge,2013-12-23 07:39:00,
2013-12-23 02:44:00,38.3,34.7,29.25,East,90,0.0,0.0,87,0.00,,,0.00,778.0,meteobridge,2013-12-23 07:44:00,
2013-12-23 02:49:00,38.3,34.7,29.26,East,90,0.0,0.0,87,0.00,,,0.00,778.0,meteobridge,2013-12-23 07:49:00,
2013-12-23 02:54:00,38.3,34.7,29.26,East,90,0.0,0.0,87,0.00,,,0.00,778.0,meteobridge,2013-12-23 07:54:00,
2013-12-23 02:59:00,38.3,34.7,29.26,East,90,0.0,0.0,87,0.00,,,0.00,778.0,meteobridge,2013-12-23 07:59:00,
2013-12-23 03:04:00,38.3,34.5,29.26,East,90,0.0,0.0,86,0.00,,,0.00,741.0,meteobridge,2013-12-23 08:04:00,
2013-12-23 03:10:00,38.3,34.5,29.27,East,90,0.0,0.0,86,0.00,,,0.00,741.0,meteobridge,2013-12-23 08:10:00,
2013-12-23 03:15:00,38.3,34.5,29.27,East,90,0.0,0.0,86,0.00,,,0.00,741.0,meteobridge,2013-12-23 08:15:00,
2013-12-23 03:20:00,38.3,34.5,29.27,East,90,0.0,0.0,86,0.00,,,0.00,741.0,meteobridge,2013-12-23 08:20:00,
2013-12-23 03:25:00,38.3,34.5,29.27,East,90,0.0,0.0,86,0.00,,,0.00,741.0,meteobridge,2013-12-23 08:25:00,
2013-12-23 03:30:00,38.3,34.5,29.27,East,90,0.0,0.0,86,0.00,,,0.00,741.0,meteobridge,2013-12-23 08:30:00,
2013-12-23 03:36:00,38.3,34.7,29.26,East,90,0.0,0.0,87,0.00,,,0.00,668.0,meteobridge,2013-12-23 08:36:00,
2013-12-23 03:41:00,38.3,34.7,29.26,East,90,0.0,0.0,87,0.00,,,0.00,668.0,meteobridge,2013-12-23 08:41:00,
2013-12-23 03:46:00,38.3,34.7,29.26,East,90,0.0,0.0,87,0.00,,,0.00,668.0,meteobridge,2013-12-23 08:46:00,
2013-12-23 03:51:00,38.3,34.7,29.26,East,90,0.0,0.0,87,0.00,,,0.00,668.0,meteobridge,2013-12-23 08:51:00,
2013-12-23 03:56:00,38.3,34.7,29.25,East,90,0.0,0.0,87,0.00,,,0.00,668.0,meteobridge,2013-12-23 08:56:00,
2013-12-23 04:01:00,38.3,34.7,29.25,East,90,0.0,0.0,87,0.00,,,0.00,668.0,meteobridge,2013-12-23 09:01:00,
2013-12-23 04:07:00,38.3,34.7,29.26,East,90,0.0,0.0,87,0.00,,,0.00,558.0,meteobridge,2013-12-23 09:07:00,
2013-12-23 04:12:00,38.1,34.5,29.25,East,90,0.0,0.0,87,0.00,,,0.00,558.0,meteobridge,2013-12-23 09:12:00,
2013-12-23 04:17:00,38.1,34.5,29.26,East,90,0.0,0.0,87,0.00,,,0.00,558.0,meteobridge,2013-12-23 09:17:00,
2013-12-23 04:22:00,38.1,34.5,29.26,East,90,0.0,0.0,87,0.00,,,0.00,558.0,meteobridge,2013-12-23 09:22:00,
2013-12-23 04:27:00,38.1,34.9,29.26,East,90,0.0,0.0,88,0.00,,,0.00,558.0,meteobridge,2013-12-23 09:27:00,
2013-12-23 04:32:00,38.1,34.9,29.26,East,90,0.0,0.0,88,0.00,,,0.00,412.0,meteobridge,2013-12-23 09:32:00,
2013-12-23 04:38:00,38.1,34.9,29.26,East,90,0.0,0.0,88,0.00,,,0.00,412.0,meteobridge,2013-12-23 09:38:00,
2013-12-23 04:43:00,38.1,34.9,29.26,East,90,0.0,0.0,88,0.00,,,0.00,412.0,meteobridge,2013-12-23 09:43:00,
2013-12-23 04:48:00,38.1,34.9,29.26,East,90,0.0,0.0,88,0.00,,,0.00,412.0,meteobridge,2013-12-23 09:48:00,
2013-12-23 04:53:00,38.1,34.9,29.26,East,90,0.0,0.0,88,0.00,,,0.00,412.0,meteobridge,2013-12-23 09:53:00,
2013-12-23 04:58:00,38.1,34.9,29.26,East,90,0.0,0.0,88,0.00,,,0.00,412.0,meteobridge,2013-12-23 09:58:00,
2013-12-23 05:03:00,37.9,34.7,29.26,East,90,0.0,0.0,88,0.00,,,0.00,228.0,meteobridge,2013-12-23 10:03:00,
2013-12-23 05:09:00,37.9,34.7,29.26,East,90,0.0,0.0,88,0.00,,,0.00,228.0,meteobridge,2013-12-23 10:09:00,
2013-12-23 05:14:00,37.9,35.1,29.26,East,90,0.0,0.0,89,0.00,,,0.00,228.0,meteobridge,2013-12-23 10:14:00,
2013-12-23 05:19:00,37.9,35.1,29.26,East,90,0.0,0.0,89,0.00,,,0.00,228.0,meteobridge,2013-12-23 10:19:00,
2013-12-23 05:24:00,37.9,35.1,29.27,East,90,0.0,0.0,89,0.00,,,0.00,228.0,meteobridge,2013-12-23 10:24:00,
2013-12-23 05:29:00,37.9,35.1,29.26,East,90,0.0,0.0,89,0.00,,,0.00,228.0,meteobridge,2013-12-23 10:29:00,
2013-12-23 05:34:00,37.9,35.1,29.27,East,90,0.0,0.0,89,0.00,,,0.00,82.0,meteobridge,2013-12-23 10:34:00,
2013-12-23 05:40:00,37.9,35.1,29.27,East,90,0.0,0.0,89,0.00,,,0.00,82.0,meteobridge,2013-12-23 10:40:00,
2013-12-23 05:45:00,37.9,35.1,29.27,East,90,0.0,0.0,89,0.00,,,0.00,82.0,meteobridge,2013-12-23 10:45:00,
2013-12-23 05:50:00,37.9,35.1,29.27,East,90,0.0,0.0,89,0.00,,,0.00,82.0,meteobridge,2013-12-23 10:50:00,
2013-12-23 05:55:00,37.9,35.1,29.27,East,90,0.0,0.0,89,0.00,,,0.00,82.0,meteobridge,2013-12-23 10:55:00,
2013-12-23 06:00:00,37.9,35.1,29.26,East,90,0.0,0.0,89,0.00,,,0.00,82.0,meteobridge,2013-12-23 11:00:00,
2013-12-23 06:05:00,37.9,35.1,29.27,East,90,0.0,0.0,89,0.00,,,0.00,82.0,meteobridge,2013-12-23 11:05:00,
2013-12-23 06:11:00,37.8,34.9,29.27,East,90,0.0,0.0,89,0.00,,,0.00,82.0,meteobridge,2013-12-23 11:11:00,
2013-12-23 06:16:00,37.8,34.9,29.27,East,90,0.0,0.0,89,0.00,,,0.00,,meteobridge,2013-12-23 11:16:00,
2013-12-23 06:21:00,37.8,34.9,29.27,East,90,0.0,0.0,89,0.00,,,0.00,,meteobridge,2013-12-23 11:21:00,
2013-12-23 06:26:00,37.8,34.9,29.27,East,90,0.0,0.0,89,0.00,,,0.00,,meteobridge,2013-12-23 11:26:00,
2013-12-23 06:31:00,37.8,34.9,29.27,East,90,0.0,0.0,89,0.00,,,0.00,,meteobridge,2013-12-23 11:31:00,
2013-12-23 06:36:00,37.8,34.9,29.27,East,90,0.0,0.0,89,0.00,,,0.00,,meteobridge,2013-12-23 11:36:00,
2013-12-23 06:42:00,37.8,34.9,29.27,East,90,0.0,0.0,89,0.00,,,0.00,,meteobridge,2013-12-23 11:42:00,
2013-12-23 06:47:00,37.6,34.3,29.28,East,90,0.0,0.0,88,0.00,,,0.00,,meteobridge,2013-12-23 11:47:00,
2013-12-23 06:52:00,37.6,34.3,29.27,East,90,0.0,0.0,88,0.00,,,0.00,,meteobridge,2013-12-23 11:52:00,
2013-12-23 06:57:00,37.6,34.3,29.27,East,90,0.0,0.0,88,0.00,,,0.00,,meteobridge,2013-12-23 11:57:00,
2013-12-23 07:02:00,37.6,34.3,29.28,East,90,0.0,0.0,88,0.00,,,0.00,,meteobridge,2013-12-23 12:02:00,
2013-12-23 07:07:00,37.6,34.3,29.28,East,90,0.0,0.0,88,0.00,,,0.00,,meteobridge,2013-12-23 12:07:00,
2013-12-23 07:13:00,37.6,34.3,29.28,East,90,0.0,0.0,88,0.00,,,0.00,,meteobridge,2013-12-23 12:13:00,
2013-12-23 07:18:00,37.4,34.2,29.28,East,90,0.0,0.7,88,0.00,,,0.00,,meteobridge,2013-12-23 12:18:00,
2013-12-23 07:23:00,37.4,34.2,29.28,East,90,0.0,0.0,88,0.00,,,0.00,,meteobridge,2013-12-23 12:23:00,
2013-12-23 07:28:00,37.4,34.2,29.28,East,90,0.0,0.0,88,0.00,,,0.00,,meteobridge,2013-12-23 12:28:00,
2013-12-23 07:33:00,37.4,34.2,29.29,East,90,0.0,0.0,88,0.00,,,0.00,,meteobridge,2013-12-23 12:33:00,
2013-12-23 07:39:00,37.2,32.9,29.29,East,90,0.0,0.0,84,0.00,,,0.00,,meteobridge,2013-12-23 12:39:00,
2013-12-23 07:44:00,37.2,32.9,29.29,East,90,0.7,0.7,84,0.00,,,0.00,,meteobridge,2013-12-23 12:44:00,
2013-12-23 07:49:00,37.2,32.9,29.30,East,90,0.0,0.0,84,0.00,,,0.00,,meteobridge,2013-12-23 12:49:00,
2013-12-23 07:54:00,37.2,32.9,29.30,East,90,0.0,0.0,84,0.00,,,0.00,,meteobridge,2013-12-23 12:54:00,
2013-12-23 07:59:00,37.0,32.7,29.30,East,90,0.0,0.0,84,0.00,,,0.00,,meteobridge,2013-12-23 12:59:00,
2013-12-23 08:04:00,37.0,32.7,29.30,East,90,0.0,0.0,84,0.00,,,0.00,,meteobridge,2013-12-23 13:04:00,
2013-12-23 08:10:00,37.0,32.7,29.31,East,90,0.0,0.0,84,0.00,,,0.00,,meteobridge,2013-12-23 13:10:00,
2013-12-23 08:15:00,37.0,32.4,29.31,East,90,0.0,0.0,83,0.00,,,0.00,,meteobridge,2013-12-23 13:15:00,
2013-12-23 08:20:00,37.0,32.4,29.31,East,90,0.0,0.0,83,0.00,,,0.00,,meteobridge,2013-12-23 13:20:00,
2013-12-23 08:25:00,37.0,32.4,29.31,East,90,0.0,0.0,83,0.00,,,0.00,,meteobridge,2013-12-23 13:25:00,
2013-12-23 08:30:00,36.9,32.2,29.31,East,90,0.0,0.0,83,0.00,,,0.00,,meteobridge,2013-12-23 13:30:00,
2013-12-23 08:35:00,36.9,32.2,29.31,East,90,0.0,0.0,83,0.00,,,0.00,,meteobridge,2013-12-23 13:35:00,
2013-12-23 08:41:00,36.9,32.2,29.31,East,90,0.0,0.0,83,0.00,,,0.00,,meteobridge,2013-12-23 13:41:00,
2013-12-23 08:46:00,36.9,32.5,29.31,East,90,0.0,0.0,84,0.00,,,0.00,,meteobridge,2013-12-23 13:46:00,
2013-12-23 08:51:00,36.9,32.5,29.31,East,90,0.0,0.0,84,0.00,,,0.00,,meteobridge,2013-12-23 13:51:00,
2013-12-23 08:56:00,36.9,32.5,29.32,East,90,0.0,0.0,84,0.00,,,0.00,,meteobridge,2013-12-23 13:56:00,
2013-12-23 09:01:00,36.9,32.5,29.32,East,90,0.0,0.0,84,0.00,,,0.00,,meteobridge,2013-12-23 14:01:00,
2013-12-23 09:06:00,36.9,32.5,29.33,East,90,0.0,0.0,84,0.00,,,0.00,,meteobridge,2013-12-23 14:06:00,
2013-12-23 09:12:00,36.9,32.5,29.33,East,90,0.0,0.0,84,0.00,,,0.00,,meteobridge,2013-12-23 14:12:00,
2013-12-23 09:17:00,36.9,32.5,29.33,East,90,0.0,0.0,84,0.00,,,0.00,,meteobridge,2013-12-23 14:17:00,
2013-12-23 09:22:00,36.9,32.5,29.34,East,90,0.0,0.0,84,0.00,,,0.00,,meteobridge,2013-12-23 14:22:00,
2013-12-23 09:27:00,36.9,32.5,29.34,East,90,0.0,0.0,84,0.00,,,0.00,,meteobridge,2013-12-23 14:27:00,
2013-12-23 09:32:00,36.9,32.5,29.34,East,90,0.0,0.0,84,0.00,,,0.00,,meteobridge,2013-12-23 14:32:00,
2013-12-23 09:37:00,36.9,32.5,29.34,East,90,0.0,0.0,84,0.00,,,0.00,,meteobridge,2013-12-23 14:37:00,
2013-12-23 09:43:00,36.9,32.5,29.35,East,90,0.0,0.0,84,0.00,,,0.00,,meteobridge,2013-12-23 14:43:00,
2013-12-23 09:48:00,36.9,32.5,29.35,East,90,0.0,0.0,84,0.00,,,0.00,,meteobridge,2013-12-23 14:48:00,
2013-12-23 09:53:00,36.7,32.0,29.35,East,90,0.0,0.0,83,0.00,,,0.00,,meteobridge,2013-12-23 14:53:00,
2013-12-23 09:58:00,36.7,32.0,29.35,East,90,0.0,0.0,83,0.00,,,0.00,,meteobridge,2013-12-23 14:58:00,
2013-12-23 10:03:00,36.7,32.0,29.36,East,90,0.0,0.0,83,0.00,,,0.00,,meteobridge,2013-12-23 15:03:00,
2013-12-23 10:08:00,36.7,32.0,29.36,East,90,0.0,0.0,83,0.00,,,0.00,,meteobridge,2013-12-23 15:08:00,
2013-12-23 10:14:00,36.7,31.6,29.36,East,90,0.0,0.0,82,0.00,,,0.00,,meteobridge,2013-12-23 15:14:00,
2013-12-23 10:19:00,36.7,31.6,29.36,East,90,0.0,0.0,82,0.00,,,0.00,,meteobridge,2013-12-23 15:19:00,
2013-12-23 10:24:00,36.5,31.5,29.36,East,90,0.0,0.0,82,0.00,,,0.00,,meteobridge,2013-12-23 15:24:00,
2013-12-23 10:29:00,36.5,31.3,29.37,East,90,0.0,0.0,81,0.00,,,0.00,,meteobridge,2013-12-23 15:29:00,
2013-12-23 10:34:00,36.5,31.3,29.37,East,90,0.0,0.0,81,0.00,,,0.00,,meteobridge,2013-12-23 15:34:00,
2013-12-23 10:39:00,36.5,31.3,29.37,East,90,0.0,0.0,81,0.00,,,0.00,,meteobridge,2013-12-23 15:39:00,
2013-12-23 10:45:00,36.5,31.3,29.37,East,90,0.0,0.0,81,0.00,,,0.00,,meteobridge,2013-12-23 15:45:00,
2013-12-23 10:50:00,36.5,31.3,29.37,East,90,0.0,0.0,81,0.00,,,0.00,,meteobridge,2013-12-23 15:50:00,
2013-12-23 10:55:00,36.5,30.9,29.37,East,90,0.0,0.0,80,0.00,,,0.00,,meteobridge,2013-12-23 15:55:00,
2013-12-23 11:00:00,36.5,30.9,29.37,East,90,0.0,0.0,80,0.00,,,0.00,,meteobridge,2013-12-23 16:00:00,
2013-12-23 11:05:00,36.5,30.9,29.37,East,90,0.0,0.0,80,0.00,,,0.00,,meteobridge,2013-12-23 16:05:00,
2013-12-23 11:10:00,36.5,30.6,29.37,East,90,0.0,0.0,79,0.00,,,0.00,,meteobridge,2013-12-23 16:10:00,
2013-12-23 11:16:00,36.5,30.6,29.38,East,90,0.0,0.0,79,0.00,,,0.00,,meteobridge,2013-12-23 16:16:00,
2013-12-23 11:21:00,36.3,30.4,29.37,East,90,0.0,0.0,79,0.00,,,0.00,,meteobridge,2013-12-23 16:21:00,
2013-12-23 11:26:00,36.3,30.4,29.37,East,90,0.0,0.0,79,0.00,,,0.00,,meteobridge,2013-12-23 16:26:00,
2013-12-23 11:31:00,36.3,30.4,29.37,East,90,0.0,0.0,79,0.00,,,0.00,,meteobridge,2013-12-23 16:31:00,
2013-12-23 11:36:00,36.3,30.4,29.37,East,90,0.0,0.0,79,0.00,,,0.00,,meteobridge,2013-12-23 16:36:00,
2013-12-23 11:42:00,36.3,30.4,29.37,East,90,0.0,0.0,79,0.00,,,0.00,,meteobridge,2013-12-23 16:42:00,
2013-12-23 11:47:00,36.3,30.4,29.37,East,90,0.0,0.0,79,0.00,,,0.00,,meteobridge,2013-12-23 16:47:00,
2013-12-23 11:52:00,36.1,30.2,29.37,East,90,0.0,0.0,79,0.00,,,0.00,,meteobridge,2013-12-23 16:52:00,
2013-12-23 11:57:00,36.1,30.2,29.37,East,90,0.0,0.0,79,0.00,,,0.00,,meteobridge,2013-12-23 16:57:00,
2013-12-23 12:02:00,36.1,30.2,29.38,East,90,0.0,0.0,79,0.00,,,0.00,,meteobridge,2013-12-23 17:02:00,
2013-12-23 12:07:00,36.1,30.0,29.37,East,90,0.0,0.0,78,0.00,,,0.00,,meteobridge,2013-12-23 17:07:00,
2013-12-23 12:13:00,36.0,29.8,29.38,East,90,0.0,0.0,78,0.00,,,0.00,,meteobridge,2013-12-23 17:13:00,
2013-12-23 12:18:00,36.0,29.8,29.38,East,90,0.0,0.0,78,0.00,,,0.00,,meteobridge,2013-12-23 17:18:00,
2013-12-23 12:23:00,36.0,29.8,29.37,East,90,0.0,0.0,78,0.00,,,0.00,,meteobridge,2013-12-23 17:23:00,
2013-12-23 12:28:00,36.0,29.8,29.38,East,90,0.0,0.0,78,0.00,,,0.00,,meteobridge,2013-12-23 17:28:00,
2013-12-23 12:33:00,35.8,29.7,29.38,East,90,0.0,0.0,78,0.00,,,0.00,,meteobridge,2013-12-23 17:33:00,
2013-12-23 12:38:00,35.8,29.7,29.38,East,90,0.0,0.0,78,0.00,,,0.00,,meteobridge,2013-12-23 17:38:00,
2013-12-23 12:44:00,35.8,29.7,29.38,East,90,0.0,0.0,78,0.00,,,0.00,,meteobridge,2013-12-23 17:44:00,
2013-12-23 12:54:00,35.8,29.3,29.38,East,90,0.0,0.0,77,0.00,,,0.00,,meteobridge,2013-12-23 17:54:00,
2013-12-23 12:59:00,35.6,28.8,29.38,East,90,0.0,0.0,76,0.00,,,0.00,,meteobridge,2013-12-23 17:59:00,
2013-12-23 13:04:00,35.4,28.9,29.38,East,90,0.0,0.0,77,0.00,,,0.00,,meteobridge,2013-12-23 18:04:00,
2013-12-23 13:14:00,35.4,28.6,29.38,East,90,0.0,0.0,76,0.00,,,0.00,,meteobridge,2013-12-23 18:14:00,
2013-12-23 13:20:00,35.4,28.6,29.38,East,90,0.0,0.0,76,0.00,,,0.00,,meteobridge,2013-12-23 18:20:00,
2013-12-23 13:25:00,35.4,28.6,29.38,East,90,0.0,0.0,76,0.00,,,0.00,,meteobridge,2013-12-23 18:25:00,
2013-12-23 13:30:00,35.2,28.4,29.38,East,90,0.0,0.0,76,0.00,,,0.00,,meteobridge,2013-12-23 18:30:00,
2013-12-23 13:35:00,35.2,28.0,29.38,East,90,0.0,0.0,75,0.00,,,0.00,,meteobridge,2013-12-23 18:35:00,
2013-12-23 13:40:00,35.2,28.0,29.38,East,90,0.0,0.0,75,0.00,,,0.00,,meteobridge,2013-12-23 18:40:00,
2013-12-23 13:46:00,35.2,27.9,29.39,East,90,0.0,0.0,74,0.00,,,0.00,,meteobridge,2013-12-23 18:46:00,
2013-12-23 13:51:00,35.1,27.7,29.39,East,90,0.0,0.0,74,0.00,,,0.00,,meteobridge,2013-12-23 18:51:00,
2013-12-23 13:56:00,35.1,27.3,29.38,East,90,0.0,0.0,73,0.00,,,0.00,,meteobridge,2013-12-23 18:56:00,
2013-12-23 14:06:00,35.1,27.3,29.39,East,90,0.0,0.0,73,0.00,,,0.00,,meteobridge,2013-12-23 19:06:00,
2013-12-23 14:11:00,35.2,27.5,29.40,East,90,0.0,0.0,73,0.00,,,0.00,,meteobridge,2013-12-23 19:11:00,
2013-12-23 14:22:00,35.2,27.5,29.41,East,90,0.0,0.0,73,0.00,,,0.00,,meteobridge,2013-12-23 19:22:00,
2013-12-23 14:27:00,35.2,27.5,29.41,East,90,0.0,0.0,73,0.00,,,0.00,,meteobridge,2013-12-23 19:27:00,
2013-12-23 14:32:00,35.2,27.5,29.41,East,90,0.0,0.0,73,0.00,,,0.00,,meteobridge,2013-12-23 19:32:00,
2013-12-23 14:37:00,35.1,27.0,29.41,East,90,0.0,0.0,72,0.00,,,0.00,,meteobridge,2013-12-23 19:37:00,
2013-12-23 14:42:00,34.9,26.8,29.41,East,90,0.0,0.0,72,0.00,,,0.00,,meteobridge,2013-12-23 19:42:00,
2013-12-23 14:48:00,34.9,27.1,29.42,East,90,0.0,0.0,73,0.00,,,0.00,,meteobridge,2013-12-23 19:48:00,
2013-12-23 14:53:00,34.7,26.6,29.42,East,90,0.0,0.0,72,0.00,,,0.00,,meteobridge,2013-12-23 19:53:00,
2013-12-23 14:58:00,34.7,26.6,29.42,East,90,0.0,0.0,72,0.00,,,0.00,,meteobridge,2013-12-23 19:58:00,
2013-12-23 15:08:00,34.5,26.4,29.42,East,90,0.0,0.0,72,0.00,,,0.00,,meteobridge,2013-12-23 20:08:00,
2013-12-23 15:13:00,34.3,26.2,29.43,East,90,0.0,0.0,72,0.00,,,0.00,,meteobridge,2013-12-23 20:13:00,
2013-12-23 15:19:00,34.3,26.2,29.43,East,90,0.0,0.0,72,0.00,,,0.00,,meteobridge,2013-12-23 20:19:00,
2013-12-23 15:24:00,34.2,26.1,29.44,East,90,0.0,0.0,72,0.00,,,0.00,,meteobridge,2013-12-23 20:24:00,
2013-12-23 15:29:00,34.2,26.1,29.44,East,90,0.0,0.0,72,0.00,,,0.00,,meteobridge,2013-12-23 20:29:00,
2013-12-23 15:34:00,34.2,26.1,29.44,East,90,0.0,0.0,72,0.00,,,0.00,,meteobridge,2013-12-23 20:34:00,
2013-12-23 15:39:00,34.0,25.9,29.45,East,90,0.0,0.0,72,0.00,,,0.00,,meteobridge,2013-12-23 20:39:00,
2013-12-23 15:44:00,34.0,25.9,29.45,East,90,0.0,0.0,72,0.00,,,0.00,,meteobridge,2013-12-23 20:44:00,
2013-12-23 15:50:00,34.0,25.9,29.45,East,90,0.0,0.0,72,0.00,,,0.00,,meteobridge,2013-12-23 20:50:00,
2013-12-23 15:55:00,34.0,25.9,29.46,East,90,0.0,0.0,72,0.00,,,0.00,,meteobridge,2013-12-23 20:55:00,
2013-12-23 16:00:00,34.0,25.9,29.46,East,90,0.0,0.0,72,0.00,,,0.00,,meteobridge,2013-12-23 21:00:00,
2013-12-23 16:05:00,34.2,26.1,29.46,East,90,0.0,0.0,72,0.00,,,0.00,,meteobridge,2013-12-23 21:05:00,
2013-12-23 16:10:00,34.2,26.1,29.47,East,90,0.0,0.0,72,0.00,,,0.00,,meteobridge,2013-12-23 21:10:00,
2013-12-23 16:15:00,34.2,25.7,29.47,East,90,0.0,0.0,71,0.00,,,0.00,,meteobridge,2013-12-23 21:15:00,
2013-12-23 16:21:00,34.2,25.7,29.47,East,90,0.0,0.0,71,0.00,,,0.00,,meteobridge,2013-12-23 21:21:00,
2013-12-23 16:26:00,34.2,25.3,29.47,East,90,0.0,0.0,70,0.00,,,0.00,,meteobridge,2013-12-23 21:26:00,
2013-12-23 16:36:00,34.2,25.3,29.47,East,90,0.0,0.0,70,0.00,,,0.00,,meteobridge,2013-12-23 21:36:00,
2013-12-23 16:41:00,34.0,24.8,29.47,East,90,0.0,0.0,69,0.00,,,0.00,,meteobridge,2013-12-23 21:41:00,
2013-12-23 16:47:00,34.0,24.8,29.48,East,90,0.0,0.0,69,0.00,,,0.00,,meteobridge,2013-12-23 21:47:00,
2013-12-23 16:52:00,33.8,24.4,29.49,East,90,0.0,0.0,68,0.00,,,0.00,,meteobridge,2013-12-23 21:52:00,
2013-12-23 16:57:00,33.8,24.4,29.49,East,90,0.0,0.0,68,0.00,,,0.00,,meteobridge,2013-12-23 21:57:00,
2013-12-23 17:02:00,33.8,24.4,29.49,East,90,0.0,0.0,68,0.00,,,0.00,,meteobridge,2013-12-23 22:02:00,
2013-12-23 17:07:00,33.6,24.6,29.49,East,90,0.0,0.0,69,0.00,,,0.00,,meteobridge,2013-12-23 22:07:00,
2013-12-23 17:12:00,33.4,24.1,29.49,East,90,0.0,0.0,68,0.00,,,0.00,,meteobridge,2013-12-23 22:12:00,
2013-12-23 17:18:00,33.4,24.1,29.49,East,90,0.0,0.0,68,0.00,,,0.00,,meteobridge,2013-12-23 22:18:00,
2013-12-23 17:23:00,33.3,23.9,29.49,East,90,0.0,0.0,68,0.00,,,0.00,,meteobridge,2013-12-23 22:23:00,
2013-12-23 17:28:00,33.1,23.7,29.49,East,90,0.0,0.0,68,0.00,,,0.00,,meteobridge,2013-12-23 22:28:00,
2013-12-23 17:33:00,33.1,23.4,29.50,East,90,0.0,0.0,67,0.00,,,0.00,,meteobridge,2013-12-23 22:33:00,
2013-12-23 17:38:00,32.9,23.2,29.50,East,90,0.0,0.0,67,0.00,,,0.00,,meteobridge,2013-12-23 22:38:00,
2013-12-23 17:43:00,32.9,23.2,29.49,East,90,0.0,0.0,67,0.00,,,0.00,,meteobridge,2013-12-23 22:43:00,
2013-12-23 17:49:00,32.7,23.0,29.49,East,90,0.0,0.0,67,0.00,,,0.00,,meteobridge,2013-12-23 22:49:00,
2013-12-23 17:54:00,32.7,23.4,29.49,East,90,0.0,0.0,68,0.00,,,0.00,,meteobridge,2013-12-23 22:54:00,
2013-12-23 17:59:00,32.7,23.4,29.49,East,90,0.0,0.0,68,0.00,,,0.00,,meteobridge,2013-12-23 22:59:00,
2013-12-23 18:04:00,32.5,23.2,29.49,East,90,0.0,0.0,68,0.00,,,0.00,,meteobridge,2013-12-23 23:04:00,
2013-12-23 18:09:00,32.5,23.2,29.49,East,90,0.0,0.0,68,0.00,,,0.00,,meteobridge,2013-12-23 23:09:00,
2013-12-23 18:14:00,32.5,23.2,29.49,East,90,0.0,0.0,68,0.00,,,0.00,,meteobridge,2013-12-23 23:14:00,
2013-12-23 18:20:00,32.5,23.2,29.50,East,90,0.0,0.0,68,0.00,,,0.00,,meteobridge,2013-12-23 23:20:00,
2013-12-23 18:25:00,32.4,23.0,29.50,East,90,0.0,0.0,68,0.00,,,0.00,,meteobridge,2013-12-23 23:25:00,
2013-12-23 18:30:00,32.4,23.0,29.50,East,90,0.0,0.0,68,0.00,,,0.00,,meteobridge,2013-12-23 23:30:00,
2013-12-23 18:40:00,32.2,22.8,29.50,East,90,0.0,0.0,68,0.00,,,0.00,,meteobridge,2013-12-23 23:40:00,
2013-12-23 18:45:00,32.2,22.8,29.51,East,90,0.0,0.0,68,0.00,,,0.00,,meteobridge,2013-12-23 23:45:00,
2013-12-23 18:51:00,32.2,22.8,29.50,East,90,0.0,0.0,68,0.00,,,0.00,,meteobridge,2013-12-23 23:51:00,
2013-12-23 19:01:00,32.0,22.6,29.51,East,90,0.0,0.0,68,0.00,,,0.00,,meteobridge,2013-12-24 00:01:00,
2013-12-23 19:06:00,31.8,22.5,29.51,East,90,0.0,0.0,68,0.06,,,0.06,,meteobridge,2013-12-24 00:06:00,
2013-12-23 19:11:00,31.8,22.5,29.51,East,90,0.0,0.0,68,0.06,,,0.06,,meteobridge,2013-12-24 00:11:00,
2013-12-23 19:16:00,31.6,22.3,29.51,East,90,0.0,0.0,68,0.06,,,0.06,,meteobridge,2013-12-24 00:16:00,
2013-12-23 19:22:00,31.5,22.1,29.51,East,90,0.0,0.0,68,0.06,,,0.06,,meteobridge,2013-12-24 00:22:00,
2013-12-23 19:27:00,31.5,22.1,29.52,East,90,0.0,0.0,68,0.06,,,0.06,,meteobridge,2013-12-24 00:27:00,
2013-12-23 19:32:00,31.5,22.1,29.52,East,90,0.0,0.0,68,0.06,,,0.06,,meteobridge,2013-12-24 00:32:00,
2013-12-23 19:37:00,31.3,21.9,29.52,East,90,0.0,0.0,68,0.06,,,0.06,,meteobridge,2013-12-24 00:37:00,
2013-12-23 19:42:00,31.3,21.9,29.52,East,90,0.0,0.0,68,0.06,,,0.06,,meteobridge,2013-12-24 00:42:00,
2013-12-23 19:48:00,31.1,21.7,29.52,East,90,0.0,0.0,68,0.06,,,0.06,,meteobridge,2013-12-24 00:48:00,
2013-12-23 19:53:00,31.1,21.7,29.53,East,90,0.0,0.0,68,0.06,,,0.06,,meteobridge,2013-12-24 00:53:00,
2013-12-23 19:58:00,30.9,21.6,29.53,East,90,0.0,0.0,68,0.06,,,0.06,,meteobridge,2013-12-24 00:58:00,
2013-12-23 20:03:00,30.7,21.4,29.54,East,90,0.0,0.0,68,0.00,,,0.06,,meteobridge,2013-12-24 01:03:00,
2013-12-23 20:08:00,30.7,21.4,29.53,East,90,0.0,0.0,68,0.00,,,0.06,,meteobridge,2013-12-24 01:08:00,
2013-12-23 20:13:00,30.6,21.2,29.53,East,90,0.0,0.0,68,0.00,,,0.06,,meteobridge,2013-12-24 01:13:00,
2013-12-23 20:18:00,30.4,20.7,29.53,East,90,0.0,0.0,67,0.00,,,0.06,,meteobridge,2013-12-24 01:18:00,
2013-12-23 20:24:00,30.4,20.7,29.53,East,90,0.0,0.0,67,0.00,,,0.06,,meteobridge,2013-12-24 01:24:00,
2013-12-23 20:29:00,30.2,20.5,29.53,East,90,0.0,0.0,67,0.00,,,0.06,,meteobridge,2013-12-24 01:29:00,
2013-12-23 20:34:00,30.0,20.7,29.53,East,90,0.0,0.0,68,0.00,,,0.06,,meteobridge,2013-12-24 01:34:00,
2013-12-23 20:39:00,30.0,20.7,29.53,East,90,0.0,0.0,68,0.00,,,0.06,,meteobridge,2013-12-24 01:39:00,
2013-12-23 20:44:00,29.8,20.7,29.53,East,90,0.0,0.0,68,0.00,,,0.06,,meteobridge,2013-12-24 01:44:00,
2013-12-23 20:50:00,29.8,20.7,29.53,East,90,0.0,0.0,68,0.00,,,0.06,,meteobridge,2013-12-24 01:50:00,
2013-12-23 20:55:00,29.7,20.1,29.53,East,90,0.0,0.0,67,0.00,,,0.06,,meteobridge,2013-12-24 01:55:00,
2013-12-23 21:00:00,29.7,20.1,29.53,East,90,0.0,0.0,67,0.00,,,0.06,,meteobridge,2013-12-24 02:00:00,
2013-12-23 21:05:00,29.7,20.1,29.54,East,90,0.0,0.0,67,0.00,,,0.06,47.0,meteobridge,2013-12-24 02:05:00,
2013-12-23 21:10:00,29.7,20.1,29.53,East,90,0.0,0.0,67,0.00,,,0.06,47.0,meteobridge,2013-12-24 02:10:00,
2013-12-23 21:15:00,29.3,19.8,29.53,East,90,0.0,0.0,67,0.00,,,0.06,47.0,meteobridge,2013-12-24 02:15:00,
2013-12-23 21:21:00,29.3,19.8,29.53,East,90,0.0,0.0,67,0.00,,,0.06,47.0,meteobridge,2013-12-24 02:21:00,
2013-12-23 21:26:00,29.3,19.8,29.53,East,90,0.0,0.0,67,0.00,,,0.06,47.0,meteobridge,2013-12-24 02:26:00,
2013-12-23 21:31:00,26.2,-13.9,29.53,East,90,0.0,0.0,16,0.00,,,0.06,47.0,meteobridge,2013-12-24 02:31:00,
2013-12-23 21:36:00,28.9,19.4,29.53,East,90,0.0,0.0,67,0.00,,,0.06,449.0,meteobridge,2013-12-24 02:36:00,
2013-12-23 21:41:00,28.8,19.2,29.53,East,90,0.0,0.0,67,0.00,,,0.06,449.0,meteobridge,2013-12-24 02:41:00,
2013-12-23 21:46:00,28.6,19.0,29.53,East,90,0.0,0.0,67,0.00,,,0.06,449.0,meteobridge,2013-12-24 02:46:00,
2013-12-23 21:52:00,28.6,19.0,29.52,East,90,0.0,0.0,67,0.00,,,0.06,449.0,meteobridge,2013-12-24 02:52:00,
2013-12-23 21:57:00,28.4,18.9,29.53,East,90,0.0,0.0,67,0.00,,,0.06,449.0,meteobridge,2013-12-24 02:57:00,
2013-12-23 22:02:00,28.4,18.9,29.52,East,90,0.0,0.0,67,0.00,,,0.06,852.0,meteobridge,2013-12-24 03:02:00,
2013-12-23 22:07:00,28.4,18.9,29.52,East,90,0.0,0.0,67,0.00,,,0.06,852.0,meteobridge,2013-12-24 03:07:00,
2013-12-23 22:33:00,-999.0,-99.9,29.52,North,-999,-999.0,-999.0,-999,0.00,,,0.06,1181.0,meteobridge,2013-12-24 03:33:00,
2013-12-23 22:38:00,-999.0,-99.9,29.51,North,-999,-999.0,-999.0,-999,0.00,,,0.06,1181.0,meteobridge,2013-12-24 03:38:00,
2013-12-23 22:43:00,27.9,16.9,29.51,East,90,0.0,0.0,63,0.00,,,0.06,1181.0,meteobridge,2013-12-24 03:43:00,
2013-12-23 22:48:00,27.7,16.7,29.51,East,90,0.0,0.0,63,0.00,,,0.06,1181.0,meteobridge,2013-12-24 03:48:00,
2013-12-23 22:54:00,27.7,16.7,29.51,East,90,0.0,0.0,63,0.00,,,0.06,1181.0,meteobridge,2013-12-24 03:54:00,
2013-12-23 22:59:00,27.7,16.7,29.51,East,90,0.0,0.0,63,0.00,,,0.06,1181.0,meteobridge,2013-12-24 03:59:00,
2013-12-23 23:04:00,27.7,16.7,29.51,East,90,0.0,0.0,63,0.00,,,0.06,1474.0,meteobridge,2013-12-24 04:04:00,
2013-12-23 23:09:00,27.5,16.5,29.51,East,90,0.0,0.0,63,0.00,,,0.06,1474.0,meteobridge,2013-12-24 04:09:00,
2013-12-23 23:14:00,27.5,16.9,29.51,East,90,0.0,0.0,64,0.00,,,0.06,1474.0,meteobridge,2013-12-24 04:14:00,
2013-12-23 23:19:00,27.5,16.9,29.51,East,90,0.0,0.0,64,0.00,,,0.06,1474.0,meteobridge,2013-12-24 04:19:00,
2013-12-23 23:25:00,27.3,16.7,29.51,East,90,0.0,0.0,64,0.00,,,0.06,1474.0,meteobridge,2013-12-24 04:25:00,
2013-12-23 23:30:00,27.3,16.7,29.51,East,90,0.0,0.0,64,0.00,,,0.06,1474.0,meteobridge,2013-12-24 04:30:00,
2013-12-23 23:35:00,27.3,16.7,29.51,East,90,0.0,0.0,64,0.00,,,0.06,1730.0,meteobridge,2013-12-24 04:35:00,
2013-12-23 23:40:00,27.3,16.7,29.51,East,90,0.0,0.0,64,0.00,,,0.06,1730.0,meteobridge,2013-12-24 04:40:00,
2013-12-23 23:45:00,27.3,16.7,29.51,East,90,0.0,0.0,64,0.00,,,0.06,1730.0,meteobridge,2013-12-24 04:45:00,
2013-12-23 23:50:00,27.3,16.7,29.51,East,90,0.0,0.0,64,0.00,,,0.06,1730.0,meteobridge,2013-12-24 04:50:00,
2013-12-23 23:56:00,27.3,17.1,29.51,East,90,0.0,0.0,65,0.00,,,0.06,1730.0,meteobridge,2013-12-24 04:56:00,